SL-3 R/B

Last updated on Sat Apr 13 2024 01:02:09 GMT+0100 (British Summer Time)

1 19046U 88032B 24103.57046575 .00005413 00000+0 34065-3 0 9993 2 19046 97.4467 87.1998 0034166 122.5506 237.9031 15.09115760946719
UTC large
Height (km)
Speed (km/s)
/
Latitude / Longitude
Inclination (degrees)
Orbital Period (minutes)
Azimuth
Elevation
Range (km)
Doppler Factor

Next 0 passes for location: London (51.5072 / 0.1276)

Sorry there are no passes over London.